Regional Weather Roundup
Issued by NWS Portland, ME

Current Version | Previous Version | Text Only | Print | Product List | Glossary Off
Versions: 1 2 3 4 5 6 7 8 9 10 11 12 13 14 15 16 17 18 19 20 21 22 23 24 25 26 27 28 29 30 31 32 33 34 35 36 37 38 39 40 41 42 43 44 45 46 47 48 49 50
000 ASUS41 KGYX 202110 RWRGYX WEATHER ROUNDUP FOR MAINE AND NEW HAMPSHIRE NATIONAL WEATHER SERVICE GRAY ME 400 PM EST MON NOV 20 2017 MEZ002-005-006-010-012-015-018-020-021-024-026-027-029-202200- MAINE CITY SKY/WX TMP DP RH WIND PRES REMARKS PORTLAND PTCLDY 35 15 44 W14G28 29.85R SANFORD N/A 37 17 44 W14 29.86R BAR HARBOR CLEAR 29 11 47 W9 29.79R WISCASSET PTCLDY 34 13 41 VRB7 29.85R FRYEBURG MOCLDY 30 18 60 W8 29.83R LEWISTONAUBURN CLEAR 31 14 49 W7 29.83R AUGUSTA CLEAR 30 10 43 W14G28 29.82R WCI 19 WATERVILLE CLEAR 28 12 51 W12G22 29.78R WCI 18 BANGOR PTCLDY 28 8 43 W14G24 29.79R WCI 17 GREENVILLE N/A 15 9 76 NW13G24 29.70R WCI 1 MILLINOCKET CLOUDY 22 9 57 NW14G23 29.77R WCI 9 HOULTON MOCLDY 23 7 50 W14G24 29.69R WCI 11 PRESQUE ISLE MOCLDY 21 8 57 W17G24 29.68R WCI 7 FRENCHVILLE CLOUDY 17 11 77 W13 29.62R WCI 4 CARIBOU PTCLDY 21 7 54 W12G20 29.66R WCI 9 $$ NHZ002-005-008-009-011-012-014-202200- NEW HAMPSHIRE CITY SKY/WX TMP DP RH WIND PRES REMARKS PORTSMOUTH MOCLDY 39 17 41 SW15G23 29.86R ROCHESTER CLOUDY 37 18 46 W8 29.85R NASHUA MOCLDY 38 19 46 W13G18 29.92R MANCHESTER MOCLDY 38 19 46 VRB7 29.89R CONCORD CLOUDY 37 21 52 W10 29.87R LACONIA CLOUDY 34 19 54 W12G24 29.84R PLYMOUTH CLOUDY 31 23 72 W9 29.85R BERLIN CLOUDY 23 14 68 VRB5 29.80R WHITEFIELD LGT SNOW 23 19 85 W3 29.84R FOG JAFFREY MOCLDY 36 20 52 W12G20 29.88R KEENE PTCLDY 37 19 48 W13G21 29.90R LEBANON CLOUDY 35 22 58 NW3 29.85R MT WASHINGTON SNOWSHWR 1 1 100 W67G76 N/A VSB 0 WCI -32 $$ VTZ005-007-008-202200- VERMONT CITY SKY/WX TMP DP RH WIND PRES REMARKS ST JOHNSBURY N/A 25 20 81 MISG 29.86R MONTPELIER LGT SNOW 22 21 96 NW5 29.90R FOG BURLINGTON FLURRIES 26 22 84 NE3 29.93R $$ MAZ007-012-024-CTZ003-RIZ002-NYZ038-NYZ072-202200- SOUTHERN NEW ENGLAND AND NY CITY SKY/WX TMP DP RH WIND PRES REMARKS BOSTON PTCLDY 39 19 44 W21G30 29.93R WORCESTER MOCLDY 36 16 44 W10G22 29.90R NANTUCKET MOCLDY 40 23 50 W12G21 30.00R PROVIDENCE MOCLDY 41 21 44 SW12 29.98R HARTFORD MOCLDY 42 21 43 W15 29.98R ALBANY CLOUDY 38 23 55 W15G23 29.97R NEW YORK CITY PTCLDY 47 22 37 W21G26 30.06R $$ ANZ081-ANZ082-ANZ150-NHZ014-MEZ023>029-202200- COASTAL MARINE OBSERVATIONS STATION/POSITION TIME TEMP WIND PRES WAVE AIR SEA DIR/SP/G HT/PER (UTC) (F) (DEG/KT/KT) (MB) (FT/S) MOUNT DESERT ROC 2100 35 260/ 30/ 39 1008.9R MATINICUS ROCK 2000 35 280/ 30/ 34 1008.5R ISLE OF SHOALS 2000 40 270/ 26/ 30 1010.4R JEFFREYS LEDGE 2036 51 N/A 6/ 6 CASHES LEDGE BUO 2050 40 51 1010.3R 9/ 7 GEORGES BANK BUO 1950 44 53 1010.7 14/ 8 $$ .............KEY.............. WCI - WIND CHILL TC - TEMPERATURE IN CELSIUS VSB - VISIBILITY IN MILES HX - HEAT INDEX FAIR- INDICATES FEW OR NO CLOUDS BELOW 12,000 FT, WITH NO SIGNIFICANT WEATHER AND/OR OBSTRUCTIONS TO VISIBILITY.

USA.gov is the U.S. government's official web portal to all federal, state and local government web resources and services.